This is the latest recevied weather packets stored in our database for station/object WB0OCV. If no packets are shown the sender has not sent any weather packets the latest 10 day(s).
| Time | Temp. | Humidity | Pressure | Rain* | Wind** | Luminosity | Snow |
|---|---|---|---|---|---|---|---|
| 1777666011 | 15.56° C | 51% | 1011.6 hPa | 0 mm | - | 517 W/m² | - |
| 1777665709 | 15.56° C | 53% | 1011.6 hPa | 0 mm | - | 532 W/m² | - |
| 1777665406 | 15.56° C | 51% | 1011.4 hPa | 0 mm | - | 546 W/m² | - |
| 1777665101 | 16.67° C | 50% | 1011.5 hPa | 0 mm | - | 560 W/m² | - |
| 1777664797 | 16.67° C | 57% | 1011.5 hPa | 0 mm | - | 574 W/m² | - |
| 1777664493 | 16.11° C | 52% | 1011.5 hPa | 0 mm | - | 587 W/m² | - |
| 1777664191 | 16.11° C | 51% | 1011.6 hPa | 0 mm | - | 597 W/m² | - |
| 1777663889 | 15.56° C | 52% | 1011.3 hPa | 0 mm | - | 612 W/m² | - |
| 1777663586 | 16.67° C | 50% | 1011.5 hPa | 0 mm | - | 622 W/m² | - |
| 1777663283 | 16.67° C | 53% | 1011.4 hPa | 0 mm | - | 646 W/m² | - |
| 1777662980 | 16.11° C | 53% | 1011.3 hPa | 0 mm | - | 649 W/m² | - |
| 1777662677 | 16.11° C | 52% | 1011.2 hPa | 0 mm | - | 660 W/m² | - |
| 1777662374 | 16.67° C | 50% | 1011.5 hPa | 0 mm | - | 670 W/m² | - |
| 1777662069 | 16.11° C | 51% | 1011.4 hPa | 0 mm | - | 681 W/m² | - |
| 1777661765 | 16.67° C | 50% | 1011.6 hPa | 0 mm | - | 690 W/m² | - |
| 1777661461 | 16.67° C | 55% | 1011.5 hPa | 0 mm | - | 700 W/m² | - |
| 1777661157 | 16.11° C | 52% | 1011.5 hPa | 0 mm | - | 709 W/m² | - |
| 1777660852 | 16.67° C | 47% | 1011.6 hPa | 0 mm | - | 721 W/m² | - |
| 1777660549 | 16.67° C | 50% | 1011.6 hPa | 0 mm | - | 727 W/m² | - |
| 1777660246 | 16.67° C | 46% | 1011.5 hPa | 0 mm | - | 738 W/m² | - |
| 1777659942 | 16.67° C | 51% | 1011.5 hPa | 0 mm | - | 744 W/m² | - |
| 1777659639 | 16.67° C | 50% | 1011.6 hPa | 0 mm | - | 751 W/m² | - |
| 1777659337 | 16.67° C | 51% | 1011.5 hPa | 0 mm | - | 759 W/m² | - |
| 1777659033 | 16.11° C | 51% | 1011.5 hPa | 0 mm | - | 765 W/m² | - |
| 1777658731 | 15.56° C | 51% | 1011.7 hPa | 0 mm | - | 771 W/m² | - |
* Rain latest hour (hover to see other rain measurements)
** Current wind speed in m/s (hover to see current wind gust speed)